(196) Philomela
ephemeris date magn radius delta ra dec elong phase
Today24 Aug 202612.83.154 AU4.074 AU08h53m+22°02'21.4°6.7°
Opposition24 Feb 202711.23.140 AU2.162 AU10h46m+19°10'169.5°3.3°
(196) Philomela - 2026-08-24
astro.vanbuitenen.nl


 
-1 year
-1 month
-1 day
Now
+1 day
+1 month
+1 year

The interactive orbit chart above shows the body's path through the solar system and its position at the given date. Green and blue lines are shown perpendicular to the ecliptic plane: Green if the path is above the ecliptic plane, blue if it is below. (Left-click and drag to rotate the view; Right-click and drag to move the view; Use scroll wheel to zoom in our out.)

The orbital elements of Philomela are:

            e (Eccentricity)                : 0.0126069
            a (Semimajor axis)              : 3.1181206
            i (Inclination)                 : 7.25449
            Ω (Longitude of ascending node) : 72.27836
            ω (Argument of perihelion)      : 207.78903
            M (Mean anomaly)                : 190.08248
            Epoch                           : 2026 Jun 09

            L (Longitude of perihelion)     : 99.87789
            B (Latitude of perihelion)      : -3.37509
            P (Orbital period in years)     : 5.51            
        

The light curve chart below shows the estimated development of the minor planet's magnitude.


The all-sky chart below shows the path of the minor planet over the same period as the light curve. The current position is marked yellow.





The following chart shows the path of the minor planet in the next few days. The field of view is optimized for (~10x50) binoculars and finderscopes.




Ephemerides:
Date       Time       RA (2000)    DEC (2000)    delta   radius  elong  phase   PA    magn
2026-08-24 00:00 UT   08 53 00.1   +22 02 51     4.074    3.154   21.4    6.7   297   12.8 
2026-08-24 13:41 UT   08 53 51.4   +22 00 03     4.071    3.154   21.7    6.8   297   12.8 
2026-08-25 00:00 UT   08 54 30.0   +21 57 56     4.069    3.154   22.0    6.9   297   12.8 
2026-08-26 00:00 UT   08 55 59.6   +21 52 60     4.063    3.154   22.6    7.1   297   12.8 
2026-08-27 00:00 UT   08 57 29.1   +21 48 02     4.058    3.154   23.2    7.2   297   12.8 
2026-08-28 00:00 UT   08 58 58.3   +21 43 03     4.052    3.154   23.8    7.4   296   12.8 
2026-08-29 00:00 UT   09 00 27.3   +21 38 03     4.046    3.154   24.4    7.6   296   12.8 
2026-08-30 00:00 UT   09 01 56.1   +21 33 01     4.040    3.154   25.0    7.8   296   12.8 
2026-08-31 00:00 UT   09 03 24.7   +21 27 58     4.034    3.154   25.6    7.9   296   12.8 
2026-09-01 00:00 UT   09 04 53.0   +21 22 54     4.028    3.154   26.2    8.1   296   12.8 
2026-09-02 00:00 UT   09 06 21.2   +21 17 49     4.022    3.154   26.8    8.3   296   12.8 
2026-09-03 00:00 UT   09 07 49.1   +21 12 43     4.015    3.154   27.4    8.5   296   12.8 
2026-09-04 00:00 UT   09 09 16.7   +21 07 36     4.008    3.154   28.0    8.6   296   12.8 
2026-09-05 00:00 UT   09 10 44.1   +21 02 28     4.002    3.154   28.6    8.8   296   12.8 
2026-09-06 00:00 UT   09 12 11.3   +20 57 19     3.995    3.154   29.2    9.0   295   12.8 
2026-09-07 00:00 UT   09 13 38.2   +20 52 09     3.988    3.153   29.8    9.2   295   12.8 
2026-09-08 00:00 UT   09 15 04.9   +20 46 59     3.980    3.153   30.5    9.3   295   12.8 
2026-09-09 00:00 UT   09 16 31.3   +20 41 48     3.973    3.153   31.1    9.5   295   12.8 
2026-09-10 00:00 UT   09 17 57.5   +20 36 36     3.966    3.153   31.7    9.7   295   12.8 
2026-09-11 00:00 UT   09 19 23.4   +20 31 24     3.958    3.153   32.3    9.8   295   12.8 
2026-09-12 00:00 UT   09 20 49.0   +20 26 11     3.950    3.153   32.9   10.0   295   12.8 
2026-09-13 00:00 UT   09 22 14.3   +20 20 58     3.942    3.153   33.6   10.2   295   12.8 
2026-09-14 00:00 UT   09 23 39.3   +20 15 44     3.934    3.153   34.2   10.3   295   12.8 
2026-09-15 00:00 UT   09 25 04.1   +20 10 30     3.926    3.153   34.8   10.5   295   12.9 
2026-09-16 00:00 UT   09 26 28.6   +20 05 16     3.918    3.153   35.4   10.7   295   12.9 
2026-09-17 00:00 UT   09 27 52.7   +20 00 02     3.909    3.153   36.1   10.8   295   12.9 


    Terminology:
            
    delta:  distance between minor planet and earth in AU
    radius: distance between minor planet and sun in AU
    magn:   magnitude (brightness) estimate    
    ra:     right ascension in hours (24h = 360deg)
    dec:    declination in degrees
    elong:  elongation in degrees (angle sun-earth-minor planet)    
    phase:  phase angle in degrees (angle sun-minor planet-earth)        
    AU:     Astronomical Unit (mean distance between earth and sun: 149597870.7 km
    

Orbital elements provided by the MPC (Minor Planet Center).
Calculations by a modified version of AAPlus, a C# implementation of the AA+ project by PJ Naughter from the algorithms presented in the book "Astronomical Algorithms" by Jean Meeus.
NGC2000 dso catalog and star labels from VizieR as provided by the Strasbourg astronomical Data Center.
Tycho2 catalog from the ESO archive.